Regional Weather Roundup
Issued by NWS

Home | Current Version | Previous Version | Text Only | Print | Product List | Glossary Off
Versions: 1 2 3 4 5 6 7 8 9 10 11 12 13 14 15 16 17 18 19 20 21 22 23 24 25 26 27 28 29 30 31 32 33 34 35 36 37 38 39 40 41 42 43 44 45 46 47 48 49 50

000
ASUS43 KMPX 240101
RWRMN
WEATHER ROUNDUP FOR MINNESOTA
NATIONAL WEATHER SERVICE TWIN CITIES/CHANHASSEN MN
800 PM CDT MON MAY 23 2016


NOTE: "FAIR" INDICATES FEW OR NO CLOUDS BELOW 12,000 FEET WITH NO
SIGNIFICANT WEATHER AND/OR OBSTRUCTIONS TO VISIBILITY. N/A MEANS
CURRENT SKY AND/OR WEATHER CONDITIONS ARE NOT AVAILABLE.

MNZ060>063-068>070-240200-
   Twin Cities Metro

CITY           SKY/WX    TMP DP  RH WIND       PRES   REMARKS
TWIN CITIES    CLOUDY    74  58  57 S15G23    29.74S
ST PAUL        CLOUDY    72  59  63 S9G20     29.74S
CRYSTAL        CLOUDY    74  57  55 S15G22    29.73R
BLAINE         RAIN      72  63  73 S10G16    29.74S
EDEN PRAIRIE   CLOUDY    73  58  59 S10       29.74R
SOUTH ST PAUL  CLOUDY    73  57  58 S12G17    29.75R
LAKE ELMO      CLOUDY    72  59  64 S13       29.76R
$$
MNZ001>005-007-008-013>017-022>024-027-028-240200-
   Northwest Minnesota

CITY           SKY/WX    TMP DP  RH WIND       PRES   REMARKS
BEMIDJI        MOCLDY    73  51  45 NW3       29.70S
HALLOCK        CLEAR     77  43  29 S6        29.65R
ROSEAU         MOCLDY    77  46  33 W5        29.68S
WARROAD        MOCLDY    77  48  36 SW7       29.69R
THIEF RVR FALL PTCLDY    75  50  41 CALM      29.69F
CROOKSTON      CLOUDY    77  50  38 CALM      29.67F
FOSSTON        CLOUDY    75  52  43 CALM      29.70S
DETROIT LAKES  PTCLDY    75  45  33 CALM      29.69F
MOORHEAD       CLOUDY    75  43  31 N13       29.67S
PARK RAPIDS    CLOUDY    75  54  47 S5        29.69S
MAHNOMEN       FAIR      72  55  55 E3        29.69S
$$
MNZ006-009>011-018-025>026-240200-
   North Central Minnesota

CITY           SKY/WX    TMP DP  RH WIND       PRES   REMARKS
BAUDETTE       MOCLDY    73  44  35 W5        29.68S
FLAG ISLAND    MOCLDY    66  54  63 S7        29.67R
INTL FALLS     CLOUDY    70  55  59 W3        29.69R
WASKISH        MOCLDY    70  55  60 SW3       29.70S
BIG FORK       CLOUDY    73  52  46 CALM      29.71S
LONGVILLE      CLOUDY    72  61  68 CALM      29.70S
GRAND RAPIDS     N/A    N/A N/A N/A MISG        N/A
CRANE LAKE     CLOUDY    64  61  88 CALM      29.72F
ORR            CLOUDY    66  61  82 CALM      29.69R
COOK           CLOUDY    66  63  88 CALM      29.72F
WALKER         FAIR      71  56  60 CALM      29.70R
$$
MNZ012-019>021-037-240200-
   Northeast Minnesota

CITY           SKY/WX    TMP DP  RH WIND       PRES   REMARKS
DULUTH         LGT RAIN  70  59  68 SW9       29.76R
ELY            CLOUDY    66  54  63 NW6       29.74R
HIBBING        CLOUDY    70  58  65 S6        29.72R
EVELETH        CLOUDY    70  55  60 SW7       29.74S
DULUTH HARBOR  CLOUDY    70  63  78 S9        29.74R
TWO HARBORS      N/A     70  61  73 SW6       29.72S
SILVER BAY     CLOUDY    66  57  72 S7        29.73S
GRAND MARAIS     N/A     53  44  71 W7        29.77R
G MARAIS ARPRT CLOUDY    66  54  63 S8        29.78R
$$
MNZ029>031-032-039>041-046>048-054>057-064-240200-
   West Central Minnesota

CITY           SKY/WX    TMP DP  RH WIND       PRES   REMARKS
FERGUS FALLS   CLOUDY    75  52  43 SW6       29.64R
WHEATON        CLOUDY    79  57  47 S3        29.69S
MORRIS         PTCLDY    73  55  53 SW7       29.68S
ALEXANDRIA     LGT RAIN  74  56  53 S6        29.71R
ELBOW LAKE     FAIR      75  53  45 W7        29.69R
WADENA         CLOUDY    73  54  49 CALM      29.69S
GLENWOOD       CLOUDY    72  63  73 SE7       29.72R
APPLETON       CLOUDY    75  54  46 W6        29.68S
BENSON         CLOUDY    75  55  50 SW5       29.69R
ORTONVILLE     PTCLDY    73  54  49 W6        29.69S
MADISON        CLOUDY    73  54  49 W5        29.70R
WILLMAR        FAIR      70  64  83 SE3       29.73R
$$
MNZ033>034-036-042>043-049>051-058-059-240200-
   Central Minnesota

CITY           SKY/WX    TMP DP  RH WIND       PRES   REMARKS
ST CLOUD       CLOUDY    66  64  93 E6        29.72F
PAYNESVILLE    CLOUDY    68  64  86 SE6       29.73R
AITKIN         CLOUDY    66  59  77 S6        29.73R
PINE RIVER     MOCLDY    72  61  68 SE8       29.75R
BRAINERD       CLOUDY    66  62  87 SE7       29.73R
STAPLES        CLOUDY    70  59  68 S8        29.71S
LONG PRAIRIE   FAIR      68  61  77 SE6       29.71S
LITTLE FALLS   CLOUDY    64  61  88 SE5       29.73F
LITCHFIELD     CLOUDY    64  64 100 E5        29.73S
BUFFALO        CLOUDY    62  60  93 W6        29.74F
MAPLE LAKE     TSTM      63  62  96 S3        29.75F
HUTCHINSON     TSTM      65  62  88 CALM      29.74S VSB 3/4
$$
MNZ037-044-045-052-053-240200-
   East Central Minnesota

CITY           SKY/WX    TMP DP  RH WIND       PRES   REMARKS
PRINCETON      LGT RAIN  66  64  94 W6        29.74F
MORA           CLOUDY    64  63  94 CALM      29.75F
CAMBRIDGE      CLOUDY    72  61  68 CALM      29.72F
RUSH CITY      CLOUDY    68  65  90 CALM      29.75R
MOOSE LAKE     LGT RAIN  64  63  94 CALM      29.74R
HINCKLEY       FAIR      70  64  83 S6        29.74S
CLOQUET        CLOUDY    66  59  77 S5        29.75R
MCGREGOR       CLOUDY    64  61  88 SE10      29.75R
$$
MNZ071>073-080-081-089-090-097-098-240200-
   Southwest Minnesota

CITY           SKY/WX    TMP DP  RH WIND       PRES   REMARKS
MONTEVIDEO     CLOUDY    73  57  56 W7        29.72R
GRANITE FALLS  CLOUDY    73  64  71 S9        29.73R
CANBY          CLOUDY    75  62  63 SW3       29.72S
MARSHALL       CLOUDY    72  62  71 SW8       29.73R
REDWOOD FALLS  CLOUDY    69  64  84 S13       29.73S
OLIVIA         CLOUDY    57  54  88 S6        29.73R
PIPESTONE      CLOUDY    70  63  78 SW6       29.75S
WINDOM         CLOUDY    66  63  88 S15G21    29.79R
WORTHINGTON    TSTM      63  61  93 S15       29.80F FOG
JACKSON        RAIN      68  61  77 S3        29.80S
TRACY          CLOUDY    66  59  77 S16G29    29.75R
SLAYTON        CLOUDY    64  60  85 S17       29.77S
$$
MNZ065>067-074>077-082>085-091>093-240200-
   South Central Minnesota

CITY           SKY/WX    TMP DP  RH WIND       PRES   REMARKS
MANKATO        CLOUDY    72  59  64 S14       29.75F
NEW ULM        LGT RAIN  70  64  83 SW16      29.73R
ST JAMES       RAIN      64  59  82 S17G29    29.77R
FAIRMONT       CLOUDY    70  61  73 SW15      29.78F
GLENCOE        CLOUDY    73  64  73 S13G21    29.72F
FARIBAULT      CLOUDY    70  61  73 S10G17    29.78R
OWATONNA       LGT RAIN  66  59  77 S10       29.78F
WASECA         CLOUDY    64  59  82 S12       29.79F
ALBERT LEA     CLOUDY    66  63  88 S5        29.79F
$$
MNZ078>079-086>088-094>096-240200-
   Southeast Minnesota

CITY           SKY/WX    TMP DP  RH WIND       PRES   REMARKS
ROCHESTER      CLOUDY    65  62  90 S10       29.81F
RED WING       CLOUDY    72  55  56 SW3       29.76R
STANTON        CLOUDY    71  58  61 S12G22    29.76R
DODGE CENTER   MOCLDY    64  61  88 S8        29.80F
WINONA         LGT RAIN  66  59  77 SW12G17   29.79F
AUSTIN         CLOUDY    66  61  82 S7        29.80F
PRESTON        CLOUDY    64  60  86 S7        29.82F
$$
ABBREVIATIONS USED IN REMARKS
   TC - TEMPERATURES IN CELSIUS
  WCI - WIND CHILL INDEX
   HX - HEAT INDEX
  VSB - VISIBILITY
$$



USA.gov is the U.S. government's official web portal to all federal, state and local government web resources and services.